TimeCET,TemperatureF,Dew PointF,Humidity,Sea Level PressureIn,VisibilityMPH,Wind Direction,Wind SpeedMPH,Gust SpeedMPH,PrecipitationIn,Events,Conditions,WindDirDegrees,DateUTC
12:55 AM,59.0,53.6,82,30.15,6.2,NNW,19.6,-,N/A,,Partly Cloudy,330,2012-12-28 23:55:00
1:00 AM,59,54,77,30.17,7,NNW,19.6,,,,Scattered Clouds,330,2012-12-29 00:00:00
1:55 AM,59.0,53.6,82,30.15,6.2,NNW,16.1,-,N/A,,Scattered Clouds,330,2012-12-29 00:55:00
2:55 AM,59.0,51.8,77,30.15,6.2,NNW,13.8,-,N/A,,Scattered Clouds,340,2012-12-29 01:55:00
3:55 AM,59.0,51.8,77,30.12,6.2,NNW,15.0,-,N/A,,Scattered Clouds,340,2012-12-29 02:55:00
4:55 AM,59.0,51.8,77,30.12,6.2,North,12.7,-,N/A,,Scattered Clouds,350,2012-12-29 03:55:00
5:55 AM,57.2,48.2,72,30.12,6.2,North,6.9,-,N/A,,Partly Cloudy,360,2012-12-29 04:55:00
6:55 AM,53.6,46.4,77,30.15,6.2,NE,3.5,-,N/A,,Partly Cloudy,40,2012-12-29 05:55:00
7:00 AM,53,47,72,30.16,7,NE,3.5,,,,Scattered Clouds,40,2012-12-29 06:00:00
7:55 AM,53.6,46.4,77,30.15,6.2,NNE,4.6,-,N/A,,Scattered Clouds,30,2012-12-29 06:55:00
8:55 AM,55.4,48.2,77,30.15,6.2,NNE,2.3,-,N/A,,Scattered Clouds,20,2012-12-29 07:55:00
9:55 AM,59.0,46.4,63,30.15,6.2,North,10.4,-,N/A,,Scattered Clouds,10,2012-12-29 08:55:00
10:55 AM,60.8,42.8,52,30.15,6.2,North,15.0,-,N/A,,Scattered Clouds,360,2012-12-29 09:55:00
11:55 AM,60.8,48.2,63,30.15,6.2,NNW,13.8,-,N/A,,Scattered Clouds,340,2012-12-29 10:55:00
12:55 PM,60.8,46.4,59,30.12,6.2,North,12.7,-,N/A,,Scattered Clouds,10,2012-12-29 11:55:00
1:00 PM,61,46,47,30.14,12,North,12.7,,,,Mostly Cloudy,10,2012-12-29 12:00:00
1:55 PM,59.0,44.6,59,30.12,6.2,North,9.2,-,N/A,,Scattered Clouds,350,2012-12-29 12:55:00
2:55 PM,59.0,50.0,72,30.12,6.2,North,11.5,-,N/A,,Scattered Clouds,350,2012-12-29 13:55:00
3:55 PM,59.0,48.2,67,30.12,6.2,North,11.5,-,N/A,,Scattered Clouds,360,2012-12-29 14:55:00
4:55 PM,57.2,46.4,67,30.12,6.2,North,6.9,-,N/A,,Scattered Clouds,360,2012-12-29 15:55:00
5:55 PM,51.8,44.6,76,30.12,6.2,NNE,2.3,-,N/A,,Scattered Clouds,20,2012-12-29 16:55:00
6:55 PM,51.8,46.4,82,30.12,6.2,North,2.3,-,N/A,,Scattered Clouds,360,2012-12-29 17:55:00
7:00 PM,52,46,73,30.15,7,North,2.3,,,,Partly Cloudy,0,2012-12-29 18:00:00
7:55 PM,53.6,46.4,77,30.15,6.2,Calm,Calm,-,N/A,,Scattered Clouds,0,2012-12-29 18:55:00
8:55 PM,51.8,44.6,76,30.15,6.2,Calm,Calm,-,N/A,,Scattered Clouds,0,2012-12-29 19:55:00
9:55 PM,50.0,48.2,94,30.15,6.2,North,5.8,-,N/A,,Scattered Clouds,10,2012-12-29 20:55:00
10:55 PM,50.0,46.4,87,30.15,6.2,Calm,Calm,-,N/A,,Partly Cloudy,0,2012-12-29 21:55:00
11:55 PM,50.0,44.6,82,30.15,6.2,NE,2.3,-,N/A,,Partly Cloudy,40,2012-12-29 22:55:00